Weather History for Lulea-Kallax, Sweden

Change the Weather History Date:

Tuesday, February 5, 2013

  Actual Average Record
Temperature  
Mean Temperature 19 °F -  
Max Temperature 25 °F - - ()
Min Temperature 13 °F - - ()
Degree Days  
Heating Degree Days 46    
Moisture  
Dew Point 20 °F    
Average Humidity 92    
Maximum Humidity 100    
Minimum Humidity 82    
Precipitation  
Precipitation 0.03 in - - ()
Sea Level Pressure  
Sea Level Pressure 29.33 in    
Wind  
Wind Speed 14 mph ()    
Max Wind Speed 20 mph    
Max Gust Speed -    
Visibility 5.9 miles    
Events Rain , Snow    
T = Trace of Precipitation, MM = Missing Value Source: Averaged Metar Reports

Daily Weather History Graph

Daily Weather History Graph

Search for Another Location

Airport:

Trip Planner

Search our weather history database for the weather conditions in past years. The results will help you decide how hot, cold, wet, or windy it might be!

Date:

Astronomy

Feb. 05, 2013 Rise Set
Actual Time 8:09 AM CET 3:22 PM CET
Civil Twilight 7:10 AM CET 4:21 PM CET
Nautical Twilight 6:09 AM CET 5:23 PM CET
Astronomical Twilight 5:10 AM CET 6:21 PM CET
Moon 4:29 AM CET (2/5) 9:22 AM CET (2/5)
Length of Visible Light 9h 11m
Length of Day
7h 13m
Waning Crescent, 29% of the Moon is Illuminated
Feb 5
Waning Crescent
Feb 10
New
Feb 17
First Quarter
Feb 25
Full
Mar 4
Last Quarter

Hourly Weather History & Observations

Time (CET) Temp. Windchill Dew Point Humidity Pressure Visibility Wind Dir Wind Speed Gust Speed Precip Events Conditions
12:00 AM 28 °F - 28 °F 97% 29.18 in 1 mi SSE 17.9 mph - - Snow Snow
12:20 AM 28.4 °F 16.2 °F 28.4 °F 100% 29.15 in 1.4 mi SSE 17.3 mph - N/A Snow Light Snow
12:50 AM 28.4 °F 15.8 °F 28.4 °F 100% 29.18 in 1.2 mi SSE 18.4 mph - N/A Snow Light Snow
1:00 AM 28 °F - 27 °F 95% 29.18 in 1 mi SSE 20.1 mph - -   Light Ice Pellets
1:20 AM 28.4 °F 15.8 °F 28.4 °F 100% 29.18 in 2.5 mi SSE 18.4 mph - N/A Snow Light Snow
1:50 AM 28.4 °F 15.8 °F 28.4 °F 100% 29.18 in 3.1 mi SSE 18.4 mph - N/A Snow Light Snow
2:00 AM 27 °F - 27 °F 99% 29.19 in 3 mi SSE 17.9 mph - -   Light Ice Pellets
2:20 AM 28.4 °F 16.6 °F 26.6 °F 93% 29.18 in 4.3 mi SSE 16.1 mph - N/A Snow Snow Grains
2:50 AM 28.4 °F 16.2 °F 26.6 °F 93% 29.18 in 3.7 mi SE 17.3 mph - N/A   Overcast
3:00 AM 27 °F - 26 °F 95% 29.20 in 4 mi SSE 17.9 mph - -   Unknown Precipitation
3:20 AM 28.4 °F 15.8 °F 26.6 °F 93% 29.18 in 3.1 mi SE 18.4 mph - N/A   Light Ice Pellets
3:50 AM 26.6 °F 13.4 °F 26.6 °F 100% 29.18 in - SE 18.4 mph - N/A   Light Ice Pellets
4:20 AM 26.6 °F 13.4 °F 24.8 °F 93% 29.21 in - SE 18.4 mph - N/A   Light Ice Pellets
4:50 AM 26.6 °F 13.4 °F 24.8 °F 93% 29.21 in 3.1 mi SE 18.4 mph - N/A Snow Light Snow
5:00 AM 25 °F - 24 °F 94% 29.22 in 4 mi SE 17.9 mph - -   Unknown Precipitation
5:20 AM 26.6 °F 13.8 °F 24.8 °F 93% 29.21 in 1.9 mi SE 17.3 mph - N/A Snow Light Snow
5:50 AM 26.6 °F 13.4 °F 24.8 °F 93% 29.21 in 6.2 mi SE 18.4 mph - N/A   Mostly Cloudy
6:00 AM 25 °F - 23 °F 91% 29.24 in 9 mi SE 17.9 mph - - Rain Light Freezing Rain
6:20 AM 24.8 °F 12.4 °F 23.0 °F 93% 29.21 in 6.2 mi SE 15.0 mph - N/A Snow Light Snow
6:50 AM 24.8 °F 11.5 °F 23.0 °F 93% 29.24 in 6.2 mi SE 17.3 mph - N/A Snow Light Snow
7:00 AM 24 °F - 23 °F 93% 29.25 in 12 mi SE 17.9 mph - - Snow Light Snow
7:20 AM 24.8 °F 11.5 °F 23.0 °F 93% 29.24 in 6.2 mi SE 17.3 mph - N/A Snow Light Snow
7:50 AM 24.8 °F 12.4 °F 23.0 °F 93% 29.24 in 6.2 mi SE 15.0 mph - N/A   Mostly Cloudy
8:00 AM 24 °F - 23 °F 93% 29.26 in 25 mi SE 13.4 mph - - Snow Light Snow
8:20 AM 24.8 °F 11.9 °F 23.0 °F 93% 29.24 in 6.2 mi SE 16.1 mph - N/A   Mostly Cloudy
8:50 AM 24.8 °F 12.4 °F 23.0 °F 93% 29.27 in 6.2 mi SE 15.0 mph - N/A   Mostly Cloudy
9:00 AM 24 °F - 23 °F 92% 29.28 in 31 mi SE 17.9 mph - -   Partly Cloudy
9:20 AM 24.8 °F 11.9 °F 23.0 °F 93% 29.27 in 6.2 mi SE 16.1 mph - N/A   Mostly Cloudy
9:50 AM 24.8 °F 12.4 °F 23.0 °F 93% 29.30 in 6.2 mi SE 15.0 mph - N/A Snow Light Snow
10:20 AM 24.8 °F 12.9 °F 23.0 °F 93% 29.30 in 6.2 mi SE 13.8 mph - N/A Snow Light Snow Showers
10:50 AM 24.8 °F 12.4 °F 23.0 °F 93% 29.30 in 6.2 mi SE 15.0 mph - N/A Snow Light Snow
11:00 AM 25 °F - 23 °F 87% 29.32 in 25 mi SE 13.4 mph - - Snow Light Snow
11:20 AM 24.8 °F 11.9 °F 23.0 °F 93% 29.30 in 6.2 mi SE 16.1 mph - N/A Snow Light Snow
11:50 AM 24.8 °F 11.5 °F 23.0 °F 93% 29.33 in 6.2 mi SE 17.3 mph - N/A   Mostly Cloudy
12:00 PM 25 °F - 22 °F 84% 29.34 in 19 mi SE 15.7 mph - -   Partly Cloudy
12:20 PM 24.8 °F 12.9 °F 21.2 °F 86% 29.33 in 6.2 mi SE 13.8 mph - N/A   Mostly Cloudy
12:50 PM 23.0 °F 10.6 °F 21.2 °F 93% 29.33 in 6.2 mi SE 13.8 mph - N/A   Mostly Cloudy
1:00 PM 24 °F - 21 °F 82% 29.35 in 28 mi SE 13.4 mph - -   Partly Cloudy
1:20 PM 23.0 °F 10.6 °F 21.2 °F 93% 29.33 in 6.2 mi ESE 13.8 mph - N/A   Mostly Cloudy
1:50 PM 23.0 °F 10.6 °F 19.4 °F 86% 29.36 in 6.2 mi SE 13.8 mph - N/A   Mostly Cloudy
2:00 PM 22 °F - 19 °F 85% 29.37 in 31 mi ESE 13.4 mph - -   Mostly Cloudy
2:20 PM 21.2 °F 10.1 °F 19.4 °F 93% 29.36 in 6.2 mi ESE 10.4 mph - N/A   Mostly Cloudy
2:50 PM 19.4 °F 9.5 °F 17.6 °F 93% 29.36 in - East 8.1 mph - N/A   Clear
3:00 PM 20 °F - 17 °F 84% 29.39 in 37 mi East 6.7 mph - -   Mostly Cloudy
3:20 PM 19.4 °F 11.5 °F 15.8 °F 86% 29.39 in - East 5.8 mph - N/A   Clear
3:50 PM 17.6 °F 8.2 °F 15.8 °F 93% 29.39 in - East 6.9 mph - N/A   Clear
4:20 PM 17.6 °F 7.3 °F 15.8 °F 93% 29.39 in - ENE 8.1 mph - N/A   Clear
4:50 PM 15.8 °F 7.2 °F 14.0 °F 93% 29.42 in - ENE 5.8 mph - N/A   Clear
5:00 PM 16 °F - 13 °F 84% 29.44 in 25 mi ENE 4.5 mph - -   Mostly Cloudy
5:20 PM 15.8 °F 7.2 °F 12.2 °F 86% 29.42 in - ENE 5.8 mph - N/A   Clear
5:50 PM 14.0 °F 3.9 °F 12.2 °F 93% 29.44 in - NE 6.9 mph - N/A   Clear
6:00 PM 14 °F - 12 °F 86% 29.45 in 22 mi NE 6.7 mph - -   Scattered Clouds
6:20 PM 14.0 °F 3.9 °F 12.2 °F 93% 29.44 in - NE 6.9 mph - N/A   Clear
6:50 PM 14.0 °F 5.1 °F 10.4 °F 86% 29.44 in 6.2 mi NE 5.8 mph - N/A   Mostly Cloudy
7:00 PM 13 °F - 11 °F 90% 29.48 in 22 mi ENE 6.7 mph - -   Partly Cloudy
7:20 PM 14.0 °F 5.1 °F 12.2 °F 93% 29.47 in 6.2 mi ENE 5.8 mph - N/A   Mostly Cloudy
7:50 PM 15.8 °F 10.2 °F 12.2 °F 86% 29.47 in 6.2 mi NE 3.5 mph - N/A   Mostly Cloudy
8:00 PM 15 °F - 13 °F 86% 29.49 in 22 mi NE 4.5 mph - -   Mostly Cloudy
8:50 PM 15.8 °F 7.2 °F 12.2 °F 86% 29.47 in 6.2 mi NE 5.8 mph - N/A   Mostly Cloudy
9:00 PM 15 °F - 13 °F 87% 29.51 in 12 mi ENE 6.7 mph - - Snow Light Snow
9:20 PM 15.8 °F 5.1 °F 14.0 °F 93% 29.50 in 6.2 mi ENE 8.1 mph - N/A   Overcast
9:50 PM 15.8 °F 5.1 °F 14.0 °F 93% 29.50 in 6.2 mi ENE 8.1 mph - N/A Snow Light Snow
10:20 PM 17.6 °F 7.3 °F 14.0 °F 86% 29.50 in 6.2 mi ENE 8.1 mph - N/A Snow Light Snow
10:50 PM 15.8 °F 4.2 °F 14.0 °F 93% 29.53 in 6.2 mi ENE 9.2 mph - N/A Snow Light Snow
11:00 PM 15 °F - 13 °F 88% 29.55 in 14 mi ENE 6.7 mph - -   Unknown Precipitation
11:20 PM 15.8 °F 5.1 °F 14.0 °F 93% 29.53 in 6.2 mi ENE 8.1 mph - N/A Snow Light Snow